Time,TemperatureF,DewpointF,PressureIn,WindDirection,WindDirectionDegrees,WindSpeedMPH,WindSpeedGustMPH,Humidity,HourlyPrecipIn,Conditions,Clouds,dailyrainin,SoftwareType,DateUTC
2013-02-04 00:00:00,44.4,26.5,30.03,North,355,3.0,5.0,49,0.00,,---,0.00,VWS V14.01,2013-02-04 07:00:00,
2013-02-04 00:03:00,44.4,26.5,30.03,NNW,348,0.0,6.0,49,0.00,,---,0.00,VWS V14.01,2013-02-04 07:03:00,
2013-02-04 00:05:00,44.4,26.5,30.04,North,5,1.0,6.0,49,0.00,,---,0.00,VWS V14.01,2013-02-04 07:05:00,
2013-02-04 00:08:00,44.3,26.4,30.04,NNW,335,3.0,5.0,49,0.00,,---,0.00,VWS V14.01,2013-02-04 07:08:00,
2013-02-04 00:10:00,44.3,26.4,30.04,NNW,346,2.0,5.0,49,0.00,,---,0.00,VWS V14.01,2013-02-04 07:10:00,
2013-02-04 00:13:00,44.2,26.3,30.04,NNW,336,3.0,5.0,49,0.00,,---,0.00,VWS V14.01,2013-02-04 07:13:00,
2013-02-04 00:15:00,44.2,26.3,30.03,NNW,332,2.0,5.0,49,0.00,,---,0.00,VWS V14.01,2013-02-04 07:15:00,
2013-02-04 00:18:00,44.0,26.1,30.03,NW,318,2.0,5.0,49,0.00,,---,0.00,VWS V14.01,2013-02-04 07:18:00,
2013-02-04 00:20:00,44.0,26.1,30.03,NW,309,2.0,5.0,49,0.00,,---,0.00,VWS V14.01,2013-02-04 07:20:00,
2013-02-04 00:23:00,44.1,26.2,30.03,NW,324,1.0,5.0,49,0.00,,---,0.00,VWS V14.01,2013-02-04 07:23:00,
2013-02-04 00:25:00,44.1,26.2,30.03,NNW,342,2.0,5.0,49,0.00,,---,0.00,VWS V14.01,2013-02-04 07:25:00,
2013-02-04 00:28:00,43.9,26.5,30.03,NW,325,1.0,7.0,50,0.00,,---,0.00,VWS V14.01,2013-02-04 07:28:00,
2013-02-04 00:30:00,43.9,26.5,30.03,NNW,338,2.0,7.0,50,0.00,,---,0.00,VWS V14.01,2013-02-04 07:30:00,
2013-02-04 00:33:00,43.7,26.3,30.04,NNW,333,1.0,6.0,50,0.00,,---,0.00,VWS V14.01,2013-02-04 07:33:00,
2013-02-04 00:35:00,43.7,26.3,30.03,North,349,2.0,6.0,50,0.00,,---,0.00,VWS V14.01,2013-02-04 07:35:00,
2013-02-04 00:38:00,43.6,26.2,30.03,NNW,329,2.0,5.0,50,0.00,,---,0.00,VWS V14.01,2013-02-04 07:38:00,
2013-02-04 00:40:00,43.5,26.1,30.03,NNW,341,2.0,5.0,50,0.00,,---,0.00,VWS V14.01,2013-02-04 07:40:00,
2013-02-04 00:43:00,43.4,26.0,30.03,NW,310,1.0,5.0,50,0.00,,---,0.00,VWS V14.01,2013-02-04 07:43:00,
2013-02-04 00:45:00,43.4,26.0,30.03,NNW,346,2.0,5.0,50,0.00,,---,0.00,VWS V14.01,2013-02-04 07:45:00,
2013-02-04 00:48:00,43.4,26.5,30.03,NW,318,3.0,7.0,51,0.00,,---,0.00,VWS V14.01,2013-02-04 07:48:00,
2013-02-04 00:50:00,43.4,26.5,30.03,NNW,335,4.0,7.0,51,0.00,,---,0.00,VWS V14.01,2013-02-04 07:50:00,
2013-02-04 00:53:00,43.4,26.5,30.03,NNW,339,3.0,8.0,51,0.00,,---,0.00,VWS V14.01,2013-02-04 07:53:00,
2013-02-04 00:55:00,43.4,26.5,30.03,NNW,333,4.0,8.0,51,0.00,,---,0.00,VWS V14.01,2013-02-04 07:55:00,
2013-02-04 00:58:00,43.3,26.4,30.03,NW,320,2.0,6.0,51,0.00,,---,0.00,VWS V14.01,2013-02-04 07:58:00,
2013-02-04 01:00:00,43.3,26.4,30.03,NW,323,1.0,6.0,51,0.00,,---,0.00,VWS V14.01,2013-02-04 08:00:00,
2013-02-04 01:03:00,43.1,26.7,30.03,North,349,3.0,7.0,52,0.00,,---,0.00,VWS V14.01,2013-02-04 08:03:00,
2013-02-04 01:05:00,43.1,26.7,30.03,North,355,7.0,7.0,52,0.00,,---,0.00,VWS V14.01,2013-02-04 08:05:00,
2013-02-04 01:08:00,42.8,26.9,30.03,North,360,5.0,7.0,53,0.00,,---,0.00,VWS V14.01,2013-02-04 08:08:00,
2013-02-04 01:10:00,42.8,26.4,30.04,NNW,348,4.0,7.0,52,0.00,,---,0.00,VWS V14.01,2013-02-04 08:10:00,
2013-02-04 01:13:00,42.6,26.7,30.03,NNW,333,1.0,6.0,53,0.00,,---,0.00,VWS V14.01,2013-02-04 08:13:00,
2013-02-04 01:15:00,42.5,26.6,30.03,North,350,2.0,6.0,53,0.00,,---,0.00,VWS V14.01,2013-02-04 08:15:00,
2013-02-04 01:18:00,42.4,27.0,30.03,North,355,4.0,8.0,54,0.00,,---,0.00,VWS V14.01,2013-02-04 08:18:00,
2013-02-04 01:20:00,42.4,27.0,30.03,NNW,337,4.0,8.0,54,0.00,,---,0.00,VWS V14.01,2013-02-04 08:20:00,
2013-02-04 01:23:00,42.3,26.9,30.03,North,355,5.0,8.0,54,0.00,,---,0.00,VWS V14.01,2013-02-04 08:23:00,
2013-02-04 01:25:00,42.3,26.9,30.03,North,355,1.0,8.0,54,0.00,,---,0.00,VWS V14.01,2013-02-04 08:25:00,
2013-02-04 01:28:00,42.2,27.2,30.03,North,355,3.0,7.0,55,0.00,,---,0.00,VWS V14.01,2013-02-04 08:28:00,
2013-02-04 01:30:00,42.2,27.2,30.03,NW,323,2.0,8.0,55,0.00,,---,0.00,VWS V14.01,2013-02-04 08:30:00,
2013-02-04 01:33:00,42.1,27.1,30.03,NNW,347,3.0,7.0,55,0.00,,---,0.00,VWS V14.01,2013-02-04 08:33:00,
2013-02-04 01:35:00,42.0,27.0,30.03,NNE,26,7.0,7.0,55,0.00,,---,0.00,VWS V14.01,2013-02-04 08:35:00,
2013-02-04 01:38:00,41.9,27.4,30.03,North,355,1.0,8.0,56,0.00,,---,0.00,VWS V14.01,2013-02-04 08:38:00,
2013-02-04 01:40:00,41.9,27.4,30.04,North,355,2.0,8.0,56,0.00,,---,0.00,VWS V14.01,2013-02-04 08:40:00,
2013-02-04 01:43:00,41.8,27.3,30.04,NNW,341,2.0,5.0,56,0.00,,---,0.00,VWS V14.01,2013-02-04 08:43:00,
2013-02-04 01:45:00,41.7,27.6,30.04,North,350,5.0,6.0,57,0.00,,---,0.00,VWS V14.01,2013-02-04 08:45:00,
2013-02-04 01:48:00,41.5,27.8,30.04,North,349,1.0,5.0,58,0.00,,---,0.00,VWS V14.01,2013-02-04 08:48:00,
2013-02-04 01:50:00,41.5,27.8,30.04,NW,317,3.0,5.0,58,0.00,,---,0.00,VWS V14.01,2013-02-04 08:50:00,
2013-02-04 01:53:00,41.3,28.1,30.04,North,5,6.0,8.0,59,0.00,,---,0.00,VWS V14.01,2013-02-04 08:53:00,
2013-02-04 01:55:00,41.2,28.0,30.04,North,355,0.0,8.0,59,0.00,,---,0.00,VWS V14.01,2013-02-04 08:55:00,
2013-02-04 01:58:00,41.0,28.2,30.03,North,351,3.0,4.0,60,0.00,,---,0.00,VWS V14.01,2013-02-04 08:58:00,
2013-02-04 02:00:00,40.9,28.1,30.04,NNW,346,1.0,4.0,60,0.00,,---,0.00,VWS V14.01,2013-02-04 09:00:00,
2013-02-04 02:03:00,40.8,28.4,30.04,NNW,331,4.0,6.0,61,0.00,,---,0.00,VWS V14.01,2013-02-04 09:03:00,
2013-02-04 02:05:00,40.7,28.3,30.04,North,351,2.0,6.0,61,0.00,,---,0.00,VWS V14.01,2013-02-04 09:05:00,
2013-02-04 02:08:00,40.6,28.2,30.04,North,360,3.0,4.0,61,0.00,,---,0.00,VWS V14.01,2013-02-04 09:08:00,
2013-02-04 02:10:00,40.5,28.1,30.03,NNW,345,3.0,5.0,61,0.00,,---,0.00,VWS V14.01,2013-02-04 09:10:00,
2013-02-04 02:13:00,40.4,28.4,30.03,NNW,340,9.0,9.0,62,0.00,,---,0.00,VWS V14.01,2013-02-04 09:13:00,
2013-02-04 02:15:00,40.4,28.4,30.04,NW,325,6.0,9.0,62,0.00,,---,0.00,VWS V14.01,2013-02-04 09:15:00,
2013-02-04 02:18:00,40.5,28.1,30.04,North,350,2.0,8.0,61,0.00,,---,0.00,VWS V14.01,2013-02-04 09:18:00,
2013-02-04 02:20:00,40.5,28.1,30.04,NW,325,2.0,8.0,61,0.00,,---,0.00,VWS V14.01,2013-02-04 09:20:00,
2013-02-04 02:23:00,40.4,28.0,30.03,NW,311,2.0,7.0,61,0.00,,---,0.00,VWS V14.01,2013-02-04 09:23:00,
2013-02-04 02:25:00,40.4,28.0,30.04,North,360,4.0,7.0,61,0.00,,---,0.00,VWS V14.01,2013-02-04 09:25:00,
2013-02-04 02:28:00,40.2,27.8,30.04,NW,313,0.0,5.0,61,0.00,,---,0.00,VWS V14.01,2013-02-04 09:28:00,
2013-02-04 02:30:00,40.1,27.8,30.03,NNW,338,2.0,5.0,61,0.00,,---,0.00,VWS V14.01,2013-02-04 09:30:00,
2013-02-04 02:33:00,40.0,28.0,30.04,NW,320,2.0,9.0,62,0.00,,---,0.00,VWS V14.01,2013-02-04 09:33:00,
2013-02-04 02:35:00,40.0,28.0,30.04,NNE,20,3.0,9.0,62,0.00,,---,0.00,VWS V14.01,2013-02-04 09:35:00,
2013-02-04 02:38:00,40.0,27.6,30.04,NNW,338,1.0,7.0,61,0.00,,---,0.00,VWS V14.01,2013-02-04 09:38:00,
2013-02-04 02:40:00,40.0,27.6,30.04,NW,320,1.0,7.0,61,0.00,,---,0.00,VWS V14.01,2013-02-04 09:40:00,
2013-02-04 02:43:00,39.9,28.0,30.04,NNW,327,2.0,4.0,62,0.00,,---,0.00,VWS V14.01,2013-02-04 09:43:00,
2013-02-04 02:45:00,39.9,28.0,30.04,NW,317,1.0,4.0,62,0.00,,---,0.00,VWS V14.01,2013-02-04 09:45:00,
2013-02-04 02:48:00,39.8,27.9,30.04,NNW,331,1.0,5.0,62,0.00,,---,0.00,VWS V14.01,2013-02-04 09:48:00,
2013-02-04 02:50:00,39.8,27.9,30.04,NNW,333,2.0,5.0,62,0.00,,---,0.00,VWS V14.01,2013-02-04 09:50:00,
2013-02-04 02:53:00,39.6,27.7,30.05,NNW,344,0.0,4.0,62,0.00,,---,0.00,VWS V14.01,2013-02-04 09:53:00,
2013-02-04 02:55:00,39.5,28.0,30.05,NNW,333,2.0,4.0,63,0.00,,---,0.00,VWS V14.01,2013-02-04 09:55:00,
2013-02-04 02:58:00,39.5,28.0,30.05,NW,309,0.0,3.0,63,0.00,,---,0.00,VWS V14.01,2013-02-04 09:58:00,
2013-02-04 03:00:00,39.4,27.9,30.04,NNW,327,3.0,4.0,63,0.00,,---,0.00,VWS V14.01,2013-02-04 10:00:00,
2013-02-04 03:03:00,39.3,27.8,30.05,NW,325,0.0,3.0,63,0.00,,---,0.00,VWS V14.01,2013-02-04 10:03:00,
2013-02-04 03:05:00,39.2,27.7,30.05,NW,325,0.0,3.0,63,0.00,,---,0.00,VWS V14.01,2013-02-04 10:05:00,
2013-02-04 03:08:00,39.1,28.0,30.05,NW,325,0.0,1.0,64,0.00,,---,0.00,VWS V14.01,2013-02-04 10:08:00,
2013-02-04 03:10:00,39.0,27.9,30.05,NW,325,0.0,1.0,64,0.00,,---,0.00,VWS V14.01,2013-02-04 10:10:00,
2013-02-04 03:13:00,38.6,27.9,30.04,NW,325,0.0,0.0,65,0.00,,---,0.00,VWS V14.01,2013-02-04 10:13:00,
2013-02-04 03:15:00,38.4,27.3,30.04,NW,325,0.0,0.0,64,0.00,,---,0.00,VWS V14.01,2013-02-04 10:15:00,
2013-02-04 03:18:00,37.9,27.6,30.04,NW,325,0.0,0.0,66,0.00,,---,0.00,VWS V14.01,2013-02-04 10:18:00,
2013-02-04 03:20:00,37.8,27.5,30.04,NW,325,0.0,0.0,66,0.00,,---,0.00,VWS V14.01,2013-02-04 10:20:00,
2013-02-04 03:22:00,37.5,27.2,30.04,NNW,333,0.0,2.0,66,0.00,,---,0.00,VWS V14.01,2013-02-04 10:22:00,
2013-02-04 03:25:00,37.4,27.1,30.04,NNW,333,0.0,2.0,66,0.00,,---,0.00,VWS V14.01,2013-02-04 10:25:00,
2013-02-04 03:28:00,37.6,27.6,30.04,NNW,329,0.0,3.0,67,0.00,,---,0.00,VWS V14.01,2013-02-04 10:28:00,
2013-02-04 03:30:00,37.7,27.8,30.04,NNW,329,0.0,3.0,67,0.00,,---,0.00,VWS V14.01,2013-02-04 10:30:00,
2013-02-04 03:33:00,37.9,27.6,30.04,NNW,327,0.0,1.0,66,0.00,,---,0.00,VWS V14.01,2013-02-04 10:33:00,
2013-02-04 03:35:00,37.9,27.6,30.04,NNW,327,0.0,1.0,66,0.00,,---,0.00,VWS V14.01,2013-02-04 10:35:00,
2013-02-04 03:37:00,37.9,27.6,30.04,NNW,327,0.0,0.0,66,0.00,,---,0.00,VWS V14.01,2013-02-04 10:37:00,
2013-02-04 03:40:00,37.8,27.5,30.04,NW,325,1.0,1.0,66,0.00,,---,0.00,VWS V14.01,2013-02-04 10:40:00,
2013-02-04 03:42:00,37.7,27.8,30.03,NW,326,3.0,3.0,67,0.00,,---,0.00,VWS V14.01,2013-02-04 10:42:00,
2013-02-04 03:45:00,37.7,27.8,30.04,NNW,334,2.0,3.0,67,0.00,,---,0.00,VWS V14.01,2013-02-04 10:45:00,
2013-02-04 03:47:00,37.6,27.6,30.04,NNW,337,2.0,4.0,67,0.00,,---,0.00,VWS V14.01,2013-02-04 10:47:00,
2013-02-04 03:50:00,37.6,27.6,30.04,NNW,327,2.0,4.0,67,0.00,,---,0.00,VWS V14.01,2013-02-04 10:50:00,
2013-02-04 03:52:00,37.6,27.6,30.04,NNW,337,4.0,5.0,67,0.00,,---,0.00,VWS V14.01,2013-02-04 10:52:00,
2013-02-04 03:55:00,37.6,27.6,30.04,NW,318,2.0,5.0,67,0.00,,---,0.00,VWS V14.01,2013-02-04 10:55:00,
2013-02-04 03:57:00,37.6,27.6,30.04,NNW,329,3.0,5.0,67,0.00,,---,0.00,VWS V14.01,2013-02-04 10:57:00,
2013-02-04 04:00:00,37.6,27.6,30.04,NNW,344,1.0,5.0,67,0.00,,---,0.00,VWS V14.01,2013-02-04 11:00:00,
2013-02-04 04:02:00,37.5,27.5,30.04,NNW,348,1.0,3.0,67,0.00,,---,0.00,VWS V14.01,2013-02-04 11:02:00,
2013-02-04 04:05:00,37.5,27.6,30.04,North,350,0.0,3.0,67,0.00,,---,0.00,VWS V14.01,2013-02-04 11:05:00,
2013-02-04 04:07:00,37.3,27.4,30.04,North,360,0.0,2.0,67,0.00,,---,0.00,VWS V14.01,2013-02-04 11:07:00,
2013-02-04 04:10:00,37.1,27.2,30.04,NNE,13,1.0,2.0,67,0.00,,---,0.00,VWS V14.01,2013-02-04 11:10:00,
2013-02-04 04:12:00,36.8,26.9,30.05,NNE,13,0.0,1.0,67,0.00,,---,0.00,VWS V14.01,2013-02-04 11:12:00,
2013-02-04 04:15:00,36.8,27.2,30.05,NNE,13,0.0,1.0,68,0.00,,---,0.00,VWS V14.01,2013-02-04 11:15:00,
2013-02-04 04:17:00,36.6,27.0,30.05,North,355,0.0,2.0,68,0.00,,---,0.00,VWS V14.01,2013-02-04 11:17:00,
2013-02-04 04:20:00,36.6,27.0,30.05,North,355,0.0,2.0,68,0.00,,---,0.00,VWS V14.01,2013-02-04 11:20:00,
2013-02-04 04:22:00,36.5,27.0,30.05,North,350,1.0,3.0,68,0.00,,---,0.00,VWS V14.01,2013-02-04 11:22:00,
2013-02-04 04:25:00,36.5,27.0,30.05,North,360,3.0,3.0,68,0.00,,---,0.00,VWS V14.01,2013-02-04 11:25:00,
2013-02-04 04:27:00,36.5,27.0,30.05,NNW,340,0.0,4.0,68,0.00,,---,0.00,VWS V14.01,2013-02-04 11:27:00,
2013-02-04 04:30:00,36.5,27.0,30.05,NNW,338,3.0,4.0,68,0.00,,---,0.00,VWS V14.01,2013-02-04 11:30:00,
2013-02-04 04:32:00,36.6,27.0,30.05,NNW,346,0.0,4.0,68,0.00,,---,0.00,VWS V14.01,2013-02-04 11:32:00,
2013-02-04 04:35:00,36.6,26.7,30.05,NNW,346,3.0,4.0,67,0.00,,---,0.00,VWS V14.01,2013-02-04 11:35:00,
2013-02-04 04:37:00,36.7,26.8,30.05,North,5,0.0,4.0,67,0.00,,---,0.00,VWS V14.01,2013-02-04 11:37:00,
2013-02-04 04:40:00,36.8,26.9,30.05,North,360,3.0,5.0,67,0.00,,---,0.00,VWS V14.01,2013-02-04 11:40:00,
2013-02-04 04:42:00,37.0,27.1,30.06,North,355,0.0,5.0,67,0.00,,---,0.00,VWS V14.01,2013-02-04 11:42:00,
2013-02-04 04:45:00,37.0,27.1,30.06,North,355,1.0,5.0,67,0.00,,---,0.00,VWS V14.01,2013-02-04 11:45:00,
2013-02-04 04:47:00,37.1,26.8,30.06,NW,326,0.0,5.0,66,0.00,,---,0.00,VWS V14.01,2013-02-04 11:47:00,
2013-02-04 04:50:00,37.0,26.7,30.06,NW,326,0.0,5.0,66,0.00,,---,0.00,VWS V14.01,2013-02-04 11:50:00,
2013-02-04 04:52:00,37.0,27.1,30.06,North,5,1.0,3.0,67,0.00,,---,0.00,VWS V14.01,2013-02-04 11:52:00,
2013-02-04 04:57:00,36.8,26.9,30.06,NE,40,0.0,3.0,67,0.00,,---,0.00,VWS V14.01,2013-02-04 11:57:00,
2013-02-04 05:00:00,36.6,26.7,30.06,NE,40,0.0,3.0,67,0.00,,---,0.00,VWS V14.01,2013-02-04 12:00:00,
2013-02-04 05:02:00,36.2,26.7,30.07,NE,40,0.0,1.0,68,0.00,,---,0.00,VWS V14.01,2013-02-04 12:02:00,
2013-02-04 05:05:00,36.2,26.7,30.07,NNE,23,1.0,1.0,68,0.00,,---,0.00,VWS V14.01,2013-02-04 12:05:00,
2013-02-04 05:07:00,36.2,27.0,30.07,NNE,22,0.0,3.0,69,0.00,,---,0.00,VWS V14.01,2013-02-04 12:07:00,
2013-02-04 05:10:00,36.2,27.0,30.07,NNE,22,0.0,3.0,69,0.00,,---,0.00,VWS V14.01,2013-02-04 12:10:00,
2013-02-04 05:12:00,36.0,26.8,30.07,North,5,0.0,2.0,69,0.00,,---,0.00,VWS V14.01,2013-02-04 12:12:00,
2013-02-04 05:15:00,35.9,27.1,30.07,North,5,0.0,2.0,70,0.00,,---,0.00,VWS V14.01,2013-02-04 12:15:00,
2013-02-04 05:17:00,35.8,27.3,30.07,NW,322,0.0,2.0,71,0.00,,---,0.00,VWS V14.01,2013-02-04 12:17:00,
2013-02-04 05:20:00,35.8,27.3,30.07,NNW,338,1.0,2.0,71,0.00,,---,0.00,VWS V14.01,2013-02-04 12:20:00,
2013-02-04 05:22:00,35.9,27.8,30.07,NNW,348,1.0,5.0,72,0.00,,---,0.00,VWS V14.01,2013-02-04 12:22:00,
2013-02-04 05:25:00,36.0,27.5,30.07,NNW,344,1.0,5.0,71,0.00,,---,0.00,VWS V14.01,2013-02-04 12:25:00,
2013-02-04 05:27:00,36.1,28.0,30.07,NNW,327,0.0,4.0,72,0.00,,---,0.00,VWS V14.01,2013-02-04 12:27:00,
2013-02-04 05:30:00,36.2,27.7,30.07,NNW,327,0.0,4.0,71,0.00,,---,0.00,VWS V14.01,2013-02-04 12:30:00,
2013-02-04 05:32:00,36.2,28.1,30.07,NNW,344,0.0,3.0,72,0.00,,---,0.00,VWS V14.01,2013-02-04 12:32:00,
2013-02-04 05:35:00,36.2,27.7,30.07,NNW,344,1.0,3.0,71,0.00,,---,0.00,VWS V14.01,2013-02-04 12:35:00,
2013-02-04 05:37:00,36.3,28.1,30.07,North,355,4.0,7.0,72,0.00,,---,0.00,VWS V14.01,2013-02-04 12:37:00,
2013-02-04 05:40:00,36.4,28.2,30.07,NNW,333,0.0,7.0,72,0.00,,---,0.00,VWS V14.01,2013-02-04 12:40:00,
2013-02-04 05:42:00,36.5,28.0,30.07,North,355,1.0,4.0,71,0.00,,---,0.00,VWS V14.01,2013-02-04 12:42:00,
2013-02-04 05:45:00,36.5,28.0,30.07,North,355,0.0,4.0,71,0.00,,---,0.00,VWS V14.01,2013-02-04 12:45:00,
2013-02-04 05:47:00,36.3,27.8,30.07,North,360,1.0,2.0,71,0.00,,---,0.00,VWS V14.01,2013-02-04 12:47:00,
2013-02-04 05:50:00,36.3,27.8,30.07,NNW,328,2.0,3.0,71,0.00,,---,0.00,VWS V14.01,2013-02-04 12:50:00,
2013-02-04 05:52:00,36.3,27.8,30.07,NNW,327,1.0,2.0,71,0.00,,---,0.00,VWS V14.01,2013-02-04 12:52:00,
2013-02-04 05:55:00,36.2,27.7,30.07,NNW,335,1.0,2.0,71,0.00,,---,0.00,VWS V14.01,2013-02-04 12:55:00,
2013-02-04 05:57:00,36.1,27.6,30.07,NNW,335,0.0,1.0,71,0.00,,---,0.00,VWS V14.01,2013-02-04 12:57:00,
2013-02-04 06:00:00,36.0,27.5,30.07,NNW,334,0.0,1.0,71,0.00,,---,0.00,VWS V14.01,2013-02-04 13:00:00,
2013-02-04 06:02:00,35.9,27.8,30.07,NNW,334,0.0,0.0,72,0.00,,---,0.00,VWS V14.01,2013-02-04 13:02:00,
2013-02-04 06:05:00,35.8,27.7,30.07,NNW,334,0.0,0.0,72,0.00,,---,0.00,VWS V14.01,2013-02-04 13:05:00,
2013-02-04 06:07:00,35.6,27.5,30.07,NNW,334,0.0,0.0,72,0.00,,---,0.00,VWS V14.01,2013-02-04 13:07:00,
2013-02-04 06:10:00,35.5,27.4,30.08,NNW,334,0.0,1.0,72,0.00,,---,0.00,VWS V14.01,2013-02-04 13:10:00,
2013-02-04 06:12:00,35.5,27.7,30.07,NNW,346,1.0,4.0,73,0.00,,---,0.00,VWS V14.01,2013-02-04 13:12:00,
2013-02-04 06:15:00,35.5,27.7,30.07,NNW,346,0.0,4.0,73,0.00,,---,0.00,VWS V14.01,2013-02-04 13:15:00,
2013-02-04 06:17:00,35.5,27.7,30.07,North,5,0.0,3.0,73,0.00,,---,0.00,VWS V14.01,2013-02-04 13:17:00,
2013-02-04 06:20:00,35.5,27.7,30.07,North,5,0.0,3.0,73,0.00,,---,0.00,VWS V14.01,2013-02-04 13:20:00,
2013-02-04 06:22:00,35.5,27.7,30.08,North,351,0.0,3.0,73,0.00,,---,0.00,VWS V14.01,2013-02-04 13:22:00,
2013-02-04 06:25:00,35.5,27.7,30.08,North,351,1.0,3.0,73,0.00,,---,0.00,VWS V14.01,2013-02-04 13:25:00,
2013-02-04 06:27:00,35.2,27.4,30.08,North,351,0.0,1.0,73,0.00,,---,0.00,VWS V14.01,2013-02-04 13:27:00,
2013-02-04 06:30:00,35.1,27.3,30.08,North,355,0.0,1.0,73,0.00,,---,0.00,VWS V14.01,2013-02-04 13:30:00,
2013-02-04 06:32:00,35.1,27.7,30.07,North,355,1.0,1.0,74,0.00,,---,0.00,VWS V14.01,2013-02-04 13:32:00,
2013-02-04 06:35:00,35.2,27.8,30.07,North,355,0.0,2.0,74,0.00,,---,0.00,VWS V14.01,2013-02-04 13:35:00,
2013-02-04 06:37:00,35.1,27.7,30.07,North,355,0.0,2.0,74,0.00,,---,0.00,VWS V14.01,2013-02-04 13:37:00,
2013-02-04 06:40:00,35.0,27.2,30.07,North,355,0.0,2.0,73,0.00,,---,0.00,VWS V14.01,2013-02-04 13:40:00,
2013-02-04 06:42:00,35.0,27.6,30.07,North,355,0.0,0.0,74,0.00,,---,0.00,VWS V14.01,2013-02-04 13:42:00,
2013-02-04 06:45:00,34.9,27.8,30.07,North,355,0.0,0.0,75,0.00,,---,0.00,VWS V14.01,2013-02-04 13:45:00,
2013-02-04 06:47:00,34.7,27.6,30.07,North,355,0.0,0.0,75,0.00,,---,0.00,VWS V14.01,2013-02-04 13:47:00,
2013-02-04 06:50:00,34.6,27.5,30.07,North,355,0.0,0.0,75,0.00,,---,0.00,VWS V14.01,2013-02-04 13:50:00,
2013-02-04 06:52:00,34.3,27.2,30.07,North,355,0.0,0.0,75,0.00,,---,0.00,VWS V14.01,2013-02-04 13:52:00,
2013-02-04 06:55:00,34.2,27.1,30.07,North,355,0.0,0.0,75,0.00,,---,0.00,VWS V14.01,2013-02-04 13:55:00,
2013-02-04 06:57:00,33.8,27.0,30.07,North,355,0.0,0.0,76,0.00,,---,0.00,VWS V14.01,2013-02-04 13:57:00,
2013-02-04 07:00:00,33.7,27.0,30.07,North,355,0.0,0.0,76,0.00,,---,0.00,VWS V14.01,2013-02-04 14:00:00,
2013-02-04 07:02:00,33.7,27.3,30.08,North,355,0.0,0.0,77,0.00,,---,0.00,VWS V14.01,2013-02-04 14:02:00,
2013-02-04 07:05:00,33.6,27.2,30.08,North,355,0.0,0.0,77,0.00,,---,0.00,VWS V14.01,2013-02-04 14:05:00,
2013-02-04 07:07:00,33.4,27.0,30.08,North,355,0.0,0.0,77,0.00,,---,0.00,VWS V14.01,2013-02-04 14:07:00,
2013-02-04 07:10:00,33.3,26.9,30.08,North,355,0.0,0.0,77,0.00,,---,0.00,VWS V14.01,2013-02-04 14:10:00,
2013-02-04 07:12:00,33.1,26.7,30.09,North,355,0.0,0.0,77,0.00,,---,0.00,VWS V14.01,2013-02-04 14:12:00,
2013-02-04 07:15:00,32.9,26.5,30.09,North,355,0.0,0.0,77,0.00,,---,0.00,VWS V14.01,2013-02-04 14:15:00,
2013-02-04 07:17:00,32.6,26.2,30.09,North,355,0.0,0.0,77,0.00,,---,0.00,VWS V14.01,2013-02-04 14:17:00,
2013-02-04 07:20:00,32.7,26.6,30.09,North,355,0.0,1.0,78,0.00,,---,0.00,VWS V14.01,2013-02-04 14:20:00,
2013-02-04 07:22:00,33.1,27.0,30.09,North,355,0.0,0.0,78,0.00,,---,0.00,VWS V14.01,2013-02-04 14:22:00,
2013-02-04 07:25:00,33.3,27.2,30.09,North,355,0.0,0.0,78,0.00,,---,0.00,VWS V14.01,2013-02-04 14:25:00,
2013-02-04 07:27:00,33.7,28.2,30.09,North,355,0.0,0.0,80,0.00,,---,0.00,VWS V14.01,2013-02-04 14:27:00,
2013-02-04 07:30:00,33.4,27.3,30.09,North,355,0.0,0.0,78,0.00,,---,0.00,VWS V14.01,2013-02-04 14:30:00,
2013-02-04 07:32:00,32.8,26.4,30.09,North,355,0.0,0.0,77,0.00,,---,0.00,VWS V14.01,2013-02-04 14:32:00,
2013-02-04 07:35:00,32.8,26.4,30.09,North,355,0.0,0.0,77,0.00,,---,0.00,VWS V14.01,2013-02-04 14:35:00,
2013-02-04 07:37:00,32.8,26.7,30.09,North,355,0.0,0.0,78,0.00,,---,0.00,VWS V14.01,2013-02-04 14:37:00,
2013-02-04 07:40:00,32.8,26.7,30.10,North,355,0.0,1.0,78,0.00,,---,0.00,VWS V14.01,2013-02-04 14:40:00,
2013-02-04 07:42:00,33.0,26.9,30.10,North,355,0.0,0.0,78,0.00,,---,0.00,VWS V14.01,2013-02-04 14:42:00,
2013-02-04 07:45:00,33.3,27.2,30.10,North,355,0.0,0.0,78,0.00,,---,0.00,VWS V14.01,2013-02-04 14:45:00,
2013-02-04 07:47:00,33.9,27.5,30.10,North,355,0.0,0.0,77,0.00,,---,0.00,VWS V14.01,2013-02-04 14:47:00,
2013-02-04 07:50:00,34.2,27.4,30.10,North,355,0.0,0.0,76,0.00,,---,0.00,VWS V14.01,2013-02-04 14:50:00,
2013-02-04 07:52:00,35.3,28.2,30.10,North,355,0.0,0.0,75,0.00,,---,0.00,VWS V14.01,2013-02-04 14:52:00,
2013-02-04 07:55:00,35.5,28.0,30.10,North,355,0.0,0.0,74,0.00,,---,0.00,VWS V14.01,2013-02-04 14:55:00,
2013-02-04 07:57:00,36.1,28.0,30.10,North,355,0.0,0.0,72,0.00,,---,0.00,VWS V14.01,2013-02-04 14:57:00,
2013-02-04 08:00:00,36.2,28.4,30.10,North,355,0.0,0.0,73,0.00,,---,0.00,VWS V14.01,2013-02-04 15:00:00,
2013-02-04 08:02:00,36.5,28.4,30.11,North,355,0.0,0.0,72,0.00,,---,0.00,VWS V14.01,2013-02-04 15:02:00,
2013-02-04 08:05:00,36.7,28.5,30.11,North,355,0.0,0.0,72,0.00,,---,0.00,VWS V14.01,2013-02-04 15:05:00,
2013-02-04 08:07:00,37.0,28.8,30.11,North,355,0.0,0.0,72,0.00,,---,0.00,VWS V14.01,2013-02-04 15:07:00,
2013-02-04 08:10:00,37.7,29.2,30.10,North,355,0.0,0.0,71,0.00,,---,0.00,VWS V14.01,2013-02-04 15:10:00,
2013-02-04 08:12:00,38.9,28.9,30.11,North,355,0.0,1.0,67,0.00,,---,0.00,VWS V14.01,2013-02-04 15:12:00,
2013-02-04 08:15:00,38.8,28.8,30.11,North,355,0.0,1.0,67,0.00,,---,0.00,VWS V14.01,2013-02-04 15:15:00,
2013-02-04 08:17:00,38.8,28.8,30.11,North,355,0.0,0.0,67,0.00,,---,0.00,VWS V14.01,2013-02-04 15:17:00,
2013-02-04 08:20:00,39.2,29.2,30.11,North,355,0.0,1.0,67,0.00,,---,0.00,VWS V14.01,2013-02-04 15:20:00,
2013-02-04 08:22:00,39.7,28.9,30.11,North,355,1.0,2.0,65,0.00,,---,0.00,VWS V14.01,2013-02-04 15:22:00,
2013-02-04 08:25:00,39.8,28.6,30.11,North,355,0.0,2.0,64,0.00,,---,0.00,VWS V14.01,2013-02-04 15:25:00,
2013-02-04 08:27:00,39.7,28.5,30.11,North,355,0.0,2.0,64,0.00,,---,0.00,VWS V14.01,2013-02-04 15:27:00,
2013-02-04 08:30:00,39.7,28.9,30.11,North,355,0.0,2.0,65,0.00,,---,0.00,VWS V14.01,2013-02-04 15:30:00,
2013-02-04 08:32:00,40.0,28.8,30.11,North,355,2.0,2.0,64,0.00,,---,0.00,VWS V14.01,2013-02-04 15:32:00,
2013-02-04 08:35:00,40.0,28.4,30.11,North,355,0.0,2.0,63,0.00,,---,0.00,VWS V14.01,2013-02-04 15:35:00,
2013-02-04 08:37:00,39.9,28.7,30.11,North,355,1.0,1.0,64,0.00,,---,0.00,VWS V14.01,2013-02-04 15:37:00,
2013-02-04 08:40:00,40.1,28.9,30.12,North,355,0.0,3.0,64,0.00,,---,0.00,VWS V14.01,2013-02-04 15:40:00,
2013-02-04 08:42:00,40.4,28.8,30.11,North,355,0.0,0.0,63,0.00,,---,0.00,VWS V14.01,2013-02-04 15:42:00,
2013-02-04 08:45:00,40.4,28.8,30.11,North,355,0.0,0.0,63,0.00,,---,0.00,VWS V14.01,2013-02-04 15:45:00,
2013-02-04 08:47:00,40.3,28.7,30.12,North,355,0.0,1.0,63,0.00,,---,0.00,VWS V14.01,2013-02-04 15:47:00,
2013-02-04 08:50:00,40.6,29.0,30.12,North,360,1.0,2.0,63,0.00,,---,0.00,VWS V14.01,2013-02-04 15:50:00,
2013-02-04 08:52:00,40.9,28.9,30.12,NNW,348,0.0,3.0,62,0.00,,---,0.00,VWS V14.01,2013-02-04 15:52:00,
2013-02-04 08:55:00,40.9,28.9,30.11,NW,313,0.0,3.0,62,0.00,,---,0.00,VWS V14.01,2013-02-04 15:55:00,
2013-02-04 08:57:00,40.7,28.7,30.12,NW,325,0.0,2.0,62,0.00,,---,0.00,VWS V14.01,2013-02-04 15:57:00,
2013-02-04 09:00:00,40.8,28.8,30.12,NW,325,1.0,2.0,62,0.00,,---,0.00,VWS V14.01,2013-02-04 16:00:00,
2013-02-04 09:02:00,41.0,29.0,30.11,NNW,336,2.0,4.0,62,0.00,,---,0.00,VWS V14.01,2013-02-04 16:02:00,
2013-02-04 09:05:00,41.1,28.7,30.11,NNW,334,0.0,4.0,61,0.00,,---,0.00,VWS V14.01,2013-02-04 16:05:00,
2013-02-04 09:07:00,41.2,28.8,30.12,North,5,4.0,4.0,61,0.00,,---,0.00,VWS V14.01,2013-02-04 16:07:00,
2013-02-04 09:10:00,41.2,28.8,30.12,NNW,337,0.0,4.0,61,0.00,,---,0.00,VWS V14.01,2013-02-04 16:10:00,
2013-02-04 09:12:00,41.4,29.0,30.12,NNW,330,2.0,3.0,61,0.00,,---,0.00,VWS V14.01,2013-02-04 16:12:00,
2013-02-04 09:15:00,41.6,29.2,30.12,NNW,344,3.0,4.0,61,0.00,,---,0.00,VWS V14.01,2013-02-04 16:15:00,
2013-02-04 09:17:00,41.6,28.8,30.11,NW,325,1.0,3.0,60,0.00,,---,0.00,VWS V14.01,2013-02-04 16:17:00,
2013-02-04 09:20:00,41.7,28.9,30.12,NW,318,2.0,3.0,60,0.00,,---,0.00,VWS V14.01,2013-02-04 16:20:00,
2013-02-04 09:22:00,41.8,29.0,30.12,NNW,344,1.0,5.0,60,0.00,,---,0.00,VWS V14.01,2013-02-04 16:22:00,
2013-02-04 09:25:00,41.8,29.0,30.12,NW,322,0.0,5.0,60,0.00,,---,0.00,VWS V14.01,2013-02-04 16:25:00,
2013-02-04 09:27:00,41.9,29.0,30.12,NNE,17,2.0,4.0,60,0.00,,---,0.00,VWS V14.01,2013-02-04 16:27:00,
2013-02-04 09:30:00,41.9,29.0,30.12,NNW,340,0.0,4.0,60,0.00,,---,0.00,VWS V14.01,2013-02-04 16:30:00,
2013-02-04 09:32:00,42.1,29.2,30.11,NNW,345,1.0,5.0,60,0.00,,---,0.00,VWS V14.01,2013-02-04 16:32:00,
2013-02-04 09:35:00,42.3,29.0,30.11,NNW,338,3.0,5.0,59,0.00,,---,0.00,VWS V14.01,2013-02-04 16:35:00,
2013-02-04 09:37:00,42.2,28.9,30.11,WNW,292,4.0,5.0,59,0.00,,---,0.00,VWS V14.01,2013-02-04 16:37:00,
2013-02-04 09:40:00,42.2,28.9,30.11,North,355,2.0,8.0,59,0.00,,---,0.00,VWS V14.01,2013-02-04 16:40:00,
2013-02-04 09:42:00,42.5,29.2,30.11,North,355,3.0,7.0,59,0.00,,---,0.00,VWS V14.01,2013-02-04 16:42:00,
2013-02-04 09:45:00,42.5,29.2,30.11,NE,51,5.0,7.0,59,0.00,,---,0.00,VWS V14.01,2013-02-04 16:45:00,
2013-02-04 09:47:00,42.7,29.0,30.11,NNW,342,6.0,6.0,58,0.00,,---,0.00,VWS V14.01,2013-02-04 16:47:00,
2013-02-04 09:50:00,42.6,28.9,30.11,NNW,331,2.0,6.0,58,0.00,,---,0.00,VWS V14.01,2013-02-04 16:50:00,
2013-02-04 09:52:00,43.0,29.2,30.11,NNW,338,2.0,3.0,58,0.00,,---,0.00,VWS V14.01,2013-02-04 16:52:00,
2013-02-04 09:55:00,43.1,28.9,30.11,NNE,26,3.0,3.0,57,0.00,,---,0.00,VWS V14.01,2013-02-04 16:55:00,
2013-02-04 09:57:00,43.4,29.2,30.11,NNW,329,0.0,4.0,57,0.00,,---,0.00,VWS V14.01,2013-02-04 16:57:00,
2013-02-04 10:00:00,43.4,29.2,30.11,NNE,13,1.0,5.0,57,0.00,,---,0.00,VWS V14.01,2013-02-04 17:00:00,
2013-02-04 10:02:00,43.5,28.9,30.11,North,355,2.0,5.0,56,0.00,,---,0.00,VWS V14.01,2013-02-04 17:02:00,
2013-02-04 10:05:00,43.3,28.7,30.11,NNW,334,3.0,6.0,56,0.00,,---,0.00,VWS V14.01,2013-02-04 17:05:00,
2013-02-04 10:07:00,43.3,29.1,30.11,NW,304,0.0,4.0,57,0.00,,---,0.00,VWS V14.01,2013-02-04 17:07:00,
2013-02-04 10:10:00,43.8,29.6,30.11,NW,304,0.0,4.0,57,0.00,,---,0.00,VWS V14.01,2013-02-04 17:10:00,
2013-02-04 10:12:00,44.5,29.4,30.11,NNW,347,2.0,2.0,55,0.00,,---,0.00,VWS V14.01,2013-02-04 17:12:00,
2013-02-04 10:15:00,44.5,28.9,30.11,North,5,2.0,4.0,54,0.00,,---,0.00,VWS V14.01,2013-02-04 17:15:00,
2013-02-04 10:17:00,44.5,29.4,30.11,NNE,30,2.0,5.0,55,0.00,,---,0.00,VWS V14.01,2013-02-04 17:17:00,
2013-02-04 10:20:00,44.6,29.0,30.11,NNW,340,1.0,5.0,54,0.00,,---,0.00,VWS V14.01,2013-02-04 17:20:00,
2013-02-04 10:22:00,44.7,29.1,30.11,NNW,339,4.0,4.0,54,0.00,,---,0.00,VWS V14.01,2013-02-04 17:22:00,
2013-02-04 10:25:00,44.7,29.1,30.11,North,360,4.0,6.0,54,0.00,,---,0.00,VWS V14.01,2013-02-04 17:25:00,
2013-02-04 10:27:00,44.4,29.3,30.11,NNW,337,2.0,6.0,55,0.00,,---,0.00,VWS V14.01,2013-02-04 17:27:00,
2013-02-04 10:30:00,44.5,28.9,30.11,North,9,0.0,6.0,54,0.00,,---,0.00,VWS V14.01,2013-02-04 17:30:00,
2013-02-04 10:32:00,45.0,29.4,30.11,North,5,2.0,3.0,54,0.00,,---,0.00,VWS V14.01,2013-02-04 17:32:00,
2013-02-04 10:35:00,45.5,29.8,30.10,NNW,335,3.0,5.0,54,0.00,,---,0.00,VWS V14.01,2013-02-04 17:35:00,
2013-02-04 10:37:00,45.6,29.0,30.11,NNW,348,5.0,5.0,52,0.00,,---,0.00,VWS V14.01,2013-02-04 17:37:00,
2013-02-04 10:40:00,45.4,28.8,30.11,NW,315,1.0,6.0,52,0.00,,---,0.00,VWS V14.01,2013-02-04 17:40:00,
2013-02-04 10:42:00,46.3,30.1,30.10,NNW,336,2.0,3.0,53,0.00,,---,0.00,VWS V14.01,2013-02-04 17:42:00,
2013-02-04 10:45:00,46.4,29.3,30.11,NW,314,1.0,4.0,51,0.00,,---,0.00,VWS V14.01,2013-02-04 17:45:00,
2013-02-04 10:47:00,46.7,29.5,30.10,NNW,343,3.0,3.0,51,0.00,,---,0.00,VWS V14.01,2013-02-04 17:47:00,
2013-02-04 10:50:00,46.6,29.5,30.10,North,5,4.0,5.0,51,0.00,,---,0.00,VWS V14.01,2013-02-04 17:50:00,
2013-02-04 10:52:00,46.6,29.0,30.10,North,5,4.0,7.0,50,0.00,,---,0.00,VWS V14.01,2013-02-04 17:52:00,
2013-02-04 10:55:00,46.4,29.3,30.10,NNE,29,1.0,7.0,51,0.00,,---,0.00,VWS V14.01,2013-02-04 17:55:00,
2013-02-04 10:57:00,46.1,29.0,30.10,North,360,1.0,6.0,51,0.00,,---,0.00,VWS V14.01,2013-02-04 17:57:00,
2013-02-04 11:00:00,46.1,29.0,30.10,North,350,3.0,6.0,51,0.00,,---,0.00,VWS V14.01,2013-02-04 18:00:00,
2013-02-04 11:02:00,46.7,29.5,30.10,NE,42,4.0,4.0,51,0.00,,---,0.00,VWS V14.01,2013-02-04 18:02:00,
2013-02-04 11:05:00,46.9,29.7,30.10,NNW,336,4.0,4.0,51,0.00,,---,0.00,VWS V14.01,2013-02-04 18:05:00,
2013-02-04 11:07:00,47.1,29.4,30.09,NNE,12,1.0,4.0,50,0.00,,---,0.00,VWS V14.01,2013-02-04 18:07:00,
2013-02-04 11:10:00,47.6,29.9,30.09,NNE,13,2.0,4.0,50,0.00,,---,0.00,VWS V14.01,2013-02-04 18:10:00,
2013-02-04 11:12:00,47.6,29.4,30.09,NE,46,4.0,8.0,49,0.00,,---,0.00,VWS V14.01,2013-02-04 18:12:00,
2013-02-04 11:15:00,47.9,29.2,30.09,NNE,17,4.0,8.0,48,0.00,,---,0.00,VWS V14.01,2013-02-04 18:15:00,
2013-02-04 11:17:00,47.8,29.6,30.09,NNW,346,1.0,5.0,49,0.00,,---,0.00,VWS V14.01,2013-02-04 18:17:00,
2013-02-04 11:20:00,48.0,29.3,30.09,NNW,347,3.0,5.0,48,0.00,,---,0.00,VWS V14.01,2013-02-04 18:20:00,
2013-02-04 11:22:00,48.9,29.6,30.09,North,5,4.0,6.0,47,0.00,,---,0.00,VWS V14.01,2013-02-04 18:22:00,
2013-02-04 11:25:00,49.1,29.2,30.09,NNW,331,5.0,8.0,46,0.00,,---,0.00,VWS V14.01,2013-02-04 18:25:00,
2013-02-04 11:27:00,48.9,29.0,30.09,NNW,336,1.0,10.0,46,0.00,,---,0.00,VWS V14.01,2013-02-04 18:27:00,
2013-02-04 11:30:00,49.1,29.2,30.09,NNW,338,2.0,10.0,46,0.00,,---,0.00,VWS V14.01,2013-02-04 18:30:00,
2013-02-04 11:32:00,48.9,29.0,30.09,North,355,4.0,8.0,46,0.00,,---,0.00,VWS V14.01,2013-02-04 18:32:00,
2013-02-04 11:35:00,48.8,29.0,30.09,NNW,345,4.0,8.0,46,0.00,,---,0.00,VWS V14.01,2013-02-04 18:35:00,
2013-02-04 11:37:00,48.9,28.5,30.09,NNW,347,4.0,6.0,45,0.00,,---,0.00,VWS V14.01,2013-02-04 18:37:00,
2013-02-04 11:40:00,48.8,28.4,30.08,NW,307,3.0,6.0,45,0.00,,---,0.00,VWS V14.01,2013-02-04 18:40:00,
2013-02-04 11:42:00,49.0,28.6,30.08,NNW,333,3.0,7.0,45,0.00,,---,0.00,VWS V14.01,2013-02-04 18:42:00,
2013-02-04 11:45:00,48.9,28.0,30.08,NNW,330,1.0,7.0,44,0.00,,---,0.00,VWS V14.01,2013-02-04 18:45:00,
2013-02-04 11:47:00,49.4,28.4,30.08,NNE,17,4.0,5.0,44,0.00,,---,0.00,VWS V14.01,2013-02-04 18:47:00,
2013-02-04 11:50:00,50.0,29.0,30.08,North,5,4.0,6.0,44,0.00,,---,0.00,VWS V14.01,2013-02-04 18:50:00,
2013-02-04 11:52:00,49.9,28.3,30.08,North,360,6.0,11.0,43,0.00,,---,0.00,VWS V14.01,2013-02-04 18:52:00,
2013-02-04 11:55:00,49.9,28.3,30.08,NNW,327,2.0,11.0,43,0.00,,---,0.00,VWS V14.01,2013-02-04 18:55:00,
2013-02-04 11:57:00,50.6,29.0,30.08,NE,46,2.0,6.0,43,0.00,,---,0.00,VWS V14.01,2013-02-04 18:57:00,
2013-02-04 12:00:00,51.0,29.3,30.07,NNE,14,3.0,7.0,43,0.00,,---,0.00,VWS V14.01,2013-02-04 19:00:00,
2013-02-04 12:02:00,51.1,28.2,30.07,North,9,4.0,6.0,41,0.00,,---,0.00,VWS V14.01,2013-02-04 19:02:00,
2013-02-04 12:05:00,50.9,28.1,30.07,North,5,4.0,6.0,41,0.00,,---,0.00,VWS V14.01,2013-02-04 19:05:00,
2013-02-04 12:07:00,50.6,27.8,30.07,NNW,329,2.0,9.0,41,0.00,,---,0.00,VWS V14.01,2013-02-04 19:07:00,
2013-02-04 12:10:00,50.4,28.2,30.07,NNW,344,1.0,9.0,42,0.00,,---,0.00,VWS V14.01,2013-02-04 19:10:00,
2013-02-04 12:12:00,50.7,27.3,30.07,WNW,283,1.0,3.0,40,0.00,,---,0.00,VWS V14.01,2013-02-04 19:12:00,
2013-02-04 12:15:00,50.7,27.3,30.06,NNE,26,4.0,7.0,40,0.00,,---,0.00,VWS V14.01,2013-02-04 19:15:00,
2013-02-04 12:17:00,51.0,27.5,30.06,North,355,6.0,7.0,40,0.00,,---,0.00,VWS V14.01,2013-02-04 19:17:00,
2013-02-04 12:20:00,51.3,27.2,30.06,NE,36,2.0,7.0,39,0.00,,---,0.00,VWS V14.01,2013-02-04 19:20:00,
2013-02-04 12:22:00,52.0,27.2,30.06,North,355,4.0,6.0,38,0.00,,---,0.00,VWS V14.01,2013-02-04 19:22:00,
2013-02-04 12:25:00,52.1,26.6,30.06,NNW,331,3.0,6.0,37,0.00,,---,0.00,VWS V14.01,2013-02-04 19:25:00,
2013-02-04 12:27:00,51.8,25.7,30.05,North,355,2.0,9.0,36,0.00,,---,0.00,VWS V14.01,2013-02-04 19:27:00,
2013-02-04 12:30:00,51.8,25.7,30.05,NW,322,1.0,9.0,36,0.00,,---,0.00,VWS V14.01,2013-02-04 19:30:00,
2013-02-04 12:32:00,51.9,26.5,30.05,North,360,4.0,7.0,37,0.00,,---,0.00,VWS V14.01,2013-02-04 19:32:00,
2013-02-04 12:35:00,51.9,26.5,30.05,North,349,2.0,7.0,37,0.00,,---,0.00,VWS V14.01,2013-02-04 19:35:00,
2013-02-04 12:37:00,51.7,26.3,30.05,West,263,0.0,7.0,37,0.00,,---,0.00,VWS V14.01,2013-02-04 19:37:00,
2013-02-04 12:40:00,51.9,26.5,30.04,NNE,22,3.0,7.0,37,0.00,,---,0.00,VWS V14.01,2013-02-04 19:40:00,
2013-02-04 12:42:00,52.8,25.9,30.05,NNW,343,3.0,8.0,35,0.00,,---,0.00,VWS V14.01,2013-02-04 19:42:00,
2013-02-04 12:45:00,52.2,24.7,30.04,NNW,329,0.0,8.0,34,0.00,,---,0.00,VWS V14.01,2013-02-04 19:45:00,
2013-02-04 12:47:00,52.2,25.4,30.04,NE,42,1.0,5.0,35,0.00,,---,0.00,VWS V14.01,2013-02-04 19:47:00,
2013-02-04 12:50:00,52.2,25.4,30.04,ESE,105,3.0,5.0,35,0.00,,---,0.00,VWS V14.01,2013-02-04 19:50:00,
2013-02-04 12:52:00,51.9,25.8,30.04,ESE,103,3.0,7.0,36,0.00,,---,0.00,VWS V14.01,2013-02-04 19:52:00,
2013-02-04 12:55:00,52.0,25.9,30.03,NNW,329,1.0,7.0,36,0.00,,---,0.00,VWS V14.01,2013-02-04 19:55:00,
2013-02-04 12:57:00,52.3,25.5,30.03,North,9,3.0,4.0,35,0.00,,---,0.00,VWS V14.01,2013-02-04 19:57:00,
2013-02-04 13:00:00,52.7,25.8,30.03,NNW,338,2.0,7.0,35,0.00,,---,0.00,VWS V14.01,2013-02-04 20:00:00,
2013-02-04 13:02:00,53.4,25.8,30.03,North,5,8.0,8.0,34,0.00,,---,0.00,VWS V14.01,2013-02-04 20:02:00,
2013-02-04 13:05:00,53.5,25.8,30.03,North,355,9.0,9.0,34,0.00,,---,0.00,VWS V14.01,2013-02-04 20:05:00,
2013-02-04 13:07:00,53.6,25.9,30.03,NNW,341,5.0,9.0,34,0.00,,---,0.00,VWS V14.01,2013-02-04 20:07:00,
2013-02-04 13:10:00,53.4,25.8,30.02,NNW,338,1.0,9.0,34,0.00,,---,0.00,VWS V14.01,2013-02-04 20:10:00,
2013-02-04 13:12:00,54.0,26.3,30.02,NW,325,2.0,5.0,34,0.00,,---,0.00,VWS V14.01,2013-02-04 20:12:00,
2013-02-04 13:15:00,54.1,26.4,30.02,NNE,33,4.0,5.0,34,0.00,,---,0.00,VWS V14.01,2013-02-04 20:15:00,
2013-02-04 13:17:00,53.9,26.2,30.02,NW,323,6.0,6.0,34,0.00,,---,0.00,VWS V14.01,2013-02-04 20:17:00,
2013-02-04 13:20:00,53.9,25.5,30.02,NNW,330,1.0,7.0,33,0.00,,---,0.00,VWS V14.01,2013-02-04 20:20:00,
2013-02-04 13:22:00,54.3,25.8,30.02,North,5,0.0,6.0,33,0.00,,---,0.00,VWS V14.01,2013-02-04 20:22:00,
2013-02-04 13:25:00,54.6,25.4,30.02,North,5,6.0,6.0,32,0.00,,---,0.00,VWS V14.01,2013-02-04 20:25:00,
2013-02-04 13:27:00,55.1,25.8,30.01,North,355,0.0,6.0,32,0.00,,---,0.00,VWS V14.01,2013-02-04 20:27:00,
2013-02-04 13:30:00,55.4,26.0,30.01,NW,324,3.0,6.0,32,0.00,,---,0.00,VWS V14.01,2013-02-04 20:30:00,
2013-02-04 13:32:00,54.4,25.2,30.01,NW,316,1.0,5.0,32,0.00,,---,0.00,VWS V14.01,2013-02-04 20:32:00,
2013-02-04 13:35:00,54.8,25.5,30.01,NW,323,3.0,5.0,32,0.00,,---,0.00,VWS V14.01,2013-02-04 20:35:00,
2013-02-04 13:37:00,54.9,25.6,30.01,North,9,4.0,5.0,32,0.00,,---,0.00,VWS V14.01,2013-02-04 20:37:00,
2013-02-04 13:40:00,55.1,24.2,30.01,West,279,1.0,5.0,30,0.00,,---,0.00,VWS V14.01,2013-02-04 20:40:00,
2013-02-04 13:42:00,55.5,24.6,30.01,WSW,238,1.0,4.0,30,0.00,,---,0.00,VWS V14.01,2013-02-04 20:42:00,
2013-02-04 13:45:00,55.4,24.5,30.01,SW,227,1.0,4.0,30,0.00,,---,0.00,VWS V14.01,2013-02-04 20:45:00,
2013-02-04 13:47:00,55.4,24.5,30.00,SW,221,0.0,3.0,30,0.00,,---,0.00,VWS V14.01,2013-02-04 20:47:00,
2013-02-04 13:50:00,55.4,25.3,30.01,NNW,329,4.0,4.0,31,0.00,,---,0.00,VWS V14.01,2013-02-04 20:50:00,
2013-02-04 13:52:00,55.0,24.9,30.00,West,276,0.0,4.0,31,0.00,,---,0.00,VWS V14.01,2013-02-04 20:52:00,
2013-02-04 13:55:00,55.2,25.9,30.00,WSW,243,2.0,4.0,32,0.00,,---,0.00,VWS V14.01,2013-02-04 20:55:00,
2013-02-04 13:57:00,55.1,25.0,30.00,WNW,300,1.0,4.0,31,0.00,,---,0.00,VWS V14.01,2013-02-04 20:57:00,
2013-02-04 14:00:00,55.2,25.1,30.00,West,260,2.0,4.0,31,0.00,,---,0.00,VWS V14.01,2013-02-04 21:00:00,
2013-02-04 14:02:00,55.4,24.5,30.00,South,187,2.0,4.0,30,0.00,,---,0.00,VWS V14.01,2013-02-04 21:02:00,
2013-02-04 14:05:00,55.6,24.7,30.00,NNW,346,1.0,4.0,30,0.00,,---,0.00,VWS V14.01,2013-02-04 21:05:00,
2013-02-04 14:07:00,55.8,24.9,30.00,WNW,283,1.0,5.0,30,0.00,,---,0.00,VWS V14.01,2013-02-04 21:07:00,
2013-02-04 14:10:00,55.5,24.6,30.00,WNW,291,4.0,5.0,30,0.00,,---,0.00,VWS V14.01,2013-02-04 21:10:00,
2013-02-04 14:12:00,55.9,24.9,30.00,WSW,241,0.0,4.0,30,0.00,,---,0.00,VWS V14.01,2013-02-04 21:12:00,
2013-02-04 14:15:00,56.3,24.5,30.00,West,263,1.0,4.0,29,0.00,,---,0.00,VWS V14.01,2013-02-04 21:15:00,
2013-02-04 14:17:00,56.5,24.6,30.00,NW,323,3.0,5.0,29,0.00,,---,0.00,VWS V14.01,2013-02-04 21:17:00,
2013-02-04 14:20:00,56.4,24.6,30.00,NW,319,1.0,5.0,29,0.00,,---,0.00,VWS V14.01,2013-02-04 21:20:00,
2013-02-04 14:22:00,56.4,24.6,29.99,NNW,333,3.0,5.0,29,0.00,,---,0.00,VWS V14.01,2013-02-04 21:22:00,
2013-02-04 14:25:00,56.6,24.7,30.00,NNW,344,3.0,7.0,29,0.00,,---,0.00,VWS V14.01,2013-02-04 21:25:00,
2013-02-04 14:27:00,56.7,24.8,29.99,North,360,0.0,5.0,29,0.00,,---,0.00,VWS V14.01,2013-02-04 21:27:00,
2013-02-04 14:30:00,56.9,25.0,29.99,NNW,329,4.0,5.0,29,0.00,,---,0.00,VWS V14.01,2013-02-04 21:30:00,
2013-02-04 14:32:00,56.8,24.9,29.99,North,9,3.0,7.0,29,0.00,,---,0.00,VWS V14.01,2013-02-04 21:32:00,
2013-02-04 14:35:00,56.8,24.9,29.99,North,351,5.0,10.0,29,0.00,,---,0.00,VWS V14.01,2013-02-04 21:35:00,
2013-02-04 14:37:00,56.6,24.7,29.99,North,11,6.0,8.0,29,0.00,,---,0.00,VWS V14.01,2013-02-04 21:37:00,
2013-02-04 14:40:00,56.6,23.9,29.99,NW,325,3.0,8.0,28,0.00,,---,0.00,VWS V14.01,2013-02-04 21:40:00,
2013-02-04 14:42:00,56.4,23.7,29.99,WSW,256,2.0,3.0,28,0.00,,---,0.00,VWS V14.01,2013-02-04 21:42:00,
2013-02-04 14:45:00,55.9,23.3,29.99,SSW,201,0.0,3.0,28,0.00,,---,0.00,VWS V14.01,2013-02-04 21:45:00,
2013-02-04 14:47:00,56.1,25.1,29.99,North,355,1.0,3.0,30,0.00,,---,0.00,VWS V14.01,2013-02-04 21:47:00,
2013-02-04 14:50:00,56.4,24.6,29.99,WSW,258,4.0,4.0,29,0.00,,---,0.00,VWS V14.01,2013-02-04 21:50:00,
2013-02-04 14:52:00,56.3,23.6,29.99,NNW,327,3.0,4.0,28,0.00,,---,0.00,VWS V14.01,2013-02-04 21:52:00,
2013-02-04 14:57:00,56.9,24.1,29.98,West,271,2.0,3.0,28,0.00,,---,0.00,VWS V14.01,2013-02-04 21:57:00,
2013-02-04 15:00:00,56.9,24.1,29.98,WSW,244,3.0,4.0,28,0.00,,---,0.00,VWS V14.01,2013-02-04 22:00:00,
2013-02-04 15:02:00,56.6,23.9,29.98,NW,325,4.0,4.0,28,0.00,,---,0.00,VWS V14.01,2013-02-04 22:02:00,
2013-02-04 15:05:00,56.7,24.0,29.98,West,277,3.0,4.0,28,0.00,,---,0.00,VWS V14.01,2013-02-04 22:05:00,
2013-02-04 15:07:00,56.8,24.1,29.98,WSW,244,1.0,7.0,28,0.00,,---,0.00,VWS V14.01,2013-02-04 22:07:00,
2013-02-04 15:10:00,56.6,23.9,29.98,ENE,57,1.0,7.0,28,0.00,,---,0.00,VWS V14.01,2013-02-04 22:10:00,
2013-02-04 15:12:00,56.8,24.1,29.98,NNW,342,1.0,2.0,28,0.00,,---,0.00,VWS V14.01,2013-02-04 22:12:00,
2013-02-04 15:15:00,56.8,24.1,29.98,NNW,348,5.0,5.0,28,0.00,,---,0.00,VWS V14.01,2013-02-04 22:15:00,
2013-02-04 15:17:00,57.0,24.2,29.98,WSW,238,1.0,5.0,28,0.00,,---,0.00,VWS V14.01,2013-02-04 22:17:00,
2013-02-04 15:20:00,56.7,24.0,29.98,South,190,0.0,5.0,28,0.00,,---,0.00,VWS V14.01,2013-02-04 22:20:00,
2013-02-04 15:22:00,57.3,24.5,29.98,West,277,1.0,3.0,28,0.00,,---,0.00,VWS V14.01,2013-02-04 22:22:00,
2013-02-04 15:25:00,57.2,23.5,29.98,West,280,1.0,3.0,27,0.00,,---,0.00,VWS V14.01,2013-02-04 22:25:00,
2013-02-04 15:27:00,56.8,23.2,29.98,North,355,2.0,5.0,27,0.00,,---,0.00,VWS V14.01,2013-02-04 22:27:00,
2013-02-04 15:30:00,56.8,23.2,29.98,NW,315,1.0,5.0,27,0.00,,---,0.00,VWS V14.01,2013-02-04 22:30:00,
2013-02-04 15:32:00,56.5,22.9,29.98,NNW,340,2.0,6.0,27,0.00,,---,0.00,VWS V14.01,2013-02-04 22:32:00,
2013-02-04 15:35:00,56.5,23.8,29.98,West,279,3.0,6.0,28,0.00,,---,0.00,VWS V14.01,2013-02-04 22:35:00,
2013-02-04 15:37:00,56.4,23.7,29.98,WSW,255,1.0,3.0,28,0.00,,---,0.00,VWS V14.01,2013-02-04 22:37:00,
2013-02-04 15:40:00,56.4,23.7,29.98,NNW,331,2.0,3.0,28,0.00,,---,0.00,VWS V14.01,2013-02-04 22:40:00,
2013-02-04 15:42:00,56.7,24.0,29.97,NE,55,3.0,3.0,28,0.00,,---,0.00,VWS V14.01,2013-02-04 22:42:00,
2013-02-04 15:45:00,56.4,23.7,29.97,North,5,1.0,3.0,28,0.00,,---,0.00,VWS V14.01,2013-02-04 22:45:00,
2013-02-04 15:47:00,56.8,24.1,29.97,NNW,328,2.0,3.0,28,0.00,,---,0.00,VWS V14.01,2013-02-04 22:47:00,
2013-02-04 15:50:00,57.0,23.4,29.97,NW,323,1.0,3.0,27,0.00,,---,0.00,VWS V14.01,2013-02-04 22:50:00,
2013-02-04 15:52:00,57.3,23.6,29.97,West,266,0.0,2.0,27,0.00,,---,0.00,VWS V14.01,2013-02-04 22:52:00,
2013-02-04 15:55:00,57.5,23.8,29.97,West,265,0.0,2.0,27,0.00,,---,0.00,VWS V14.01,2013-02-04 22:55:00,
2013-02-04 15:57:00,57.0,23.4,29.97,North,355,2.0,2.0,27,0.00,,---,0.00,VWS V14.01,2013-02-04 22:57:00,
2013-02-04 16:00:00,57.4,23.7,29.97,North,355,4.0,4.0,27,0.00,,---,0.00,VWS V14.01,2013-02-04 23:00:00,
2013-02-04 16:02:00,57.7,23.1,29.97,NNW,340,1.0,4.0,26,0.00,,---,0.00,VWS V14.01,2013-02-04 23:02:00,
2013-02-04 16:05:00,57.5,22.9,29.97,NNW,333,0.0,4.0,26,0.00,,---,0.00,VWS V14.01,2013-02-04 23:05:00,
2013-02-04 16:07:00,57.7,23.1,29.97,SSE,150,1.0,2.0,26,0.00,,---,0.00,VWS V14.01,2013-02-04 23:07:00,
2013-02-04 16:10:00,57.9,23.2,29.97,South,180,0.0,3.0,26,0.00,,---,0.00,VWS V14.01,2013-02-04 23:10:00,
2013-02-04 16:12:00,58.3,23.6,29.97,NW,306,1.0,4.0,26,0.00,,---,0.00,VWS V14.01,2013-02-04 23:12:00,
2013-02-04 16:15:00,57.9,23.2,29.97,NW,312,3.0,4.0,26,0.00,,---,0.00,VWS V14.01,2013-02-04 23:15:00,
2013-02-04 16:17:00,57.4,22.8,29.97,NW,325,2.0,5.0,26,0.00,,---,0.00,VWS V14.01,2013-02-04 23:17:00,
2013-02-04 16:20:00,57.1,23.5,29.97,WNW,302,1.0,5.0,27,0.00,,---,0.00,VWS V14.01,2013-02-04 23:20:00,
2013-02-04 16:22:00,57.1,22.6,29.97,NNW,339,4.0,7.0,26,0.00,,---,0.00,VWS V14.01,2013-02-04 23:22:00,
2013-02-04 16:25:00,57.0,22.5,29.97,NW,325,0.0,7.0,26,0.00,,---,0.00,VWS V14.01,2013-02-04 23:25:00,
2013-02-04 16:27:00,56.8,22.3,29.97,West,263,1.0,3.0,26,0.00,,---,0.00,VWS V14.01,2013-02-04 23:27:00,
2013-02-04 16:30:00,56.9,22.4,29.97,WSW,254,0.0,3.0,26,0.00,,---,0.00,VWS V14.01,2013-02-04 23:30:00,
2013-02-04 16:32:00,56.8,22.3,29.96,WSW,242,1.0,2.0,26,0.00,,---,0.00,VWS V14.01,2013-02-04 23:32:00,
2013-02-04 16:35:00,56.8,22.3,29.96,NNW,336,0.0,2.0,26,0.00,,---,0.00,VWS V14.01,2013-02-04 23:35:00,
2013-02-04 16:37:00,56.9,22.4,29.96,NW,306,2.0,3.0,26,0.00,,---,0.00,VWS V14.01,2013-02-04 23:37:00,
2013-02-04 16:40:00,56.7,20.3,29.96,NW,323,1.0,3.0,24,0.00,,---,0.00,VWS V14.01,2013-02-04 23:40:00,
2013-02-04 16:42:00,56.5,20.2,29.96,NNW,340,8.0,8.0,24,0.00,,---,0.00,VWS V14.01,2013-02-04 23:42:00,
2013-02-04 16:45:00,56.7,18.3,29.96,NW,326,4.0,8.0,22,0.00,,---,0.00,VWS V14.01,2013-02-04 23:45:00,
2013-02-04 16:47:00,56.5,17.1,29.96,NNW,334,3.0,9.0,21,0.00,,---,0.00,VWS V14.01,2013-02-04 23:47:00,
2013-02-04 16:50:00,56.2,16.8,29.96,NW,309,2.0,9.0,21,0.00,,---,0.00,VWS V14.01,2013-02-04 23:50:00,
2013-02-04 16:52:00,55.9,17.6,29.96,North,350,5.0,8.0,22,0.00,,---,0.00,VWS V14.01,2013-02-04 23:52:00,
2013-02-04 16:55:00,55.9,17.6,29.96,NW,323,4.0,10.0,22,0.00,,---,0.00,VWS V14.01,2013-02-04 23:55:00,
2013-02-04 16:57:00,55.8,18.6,29.97,NW,325,6.0,11.0,23,0.00,,---,0.00,VWS V14.01,2013-02-04 23:57:00,
2013-02-04 17:00:00,55.6,18.4,29.96,North,355,3.0,11.0,23,0.00,,---,0.00,VWS V14.01,2013-02-05 00:00:00,
2013-02-04 17:02:00,55.3,19.1,29.97,NNW,340,5.0,9.0,24,0.00,,---,0.00,VWS V14.01,2013-02-05 00:02:00,
2013-02-04 17:05:00,55.2,20.0,29.97,North,350,6.0,9.0,25,0.00,,---,0.00,VWS V14.01,2013-02-05 00:05:00,
2013-02-04 17:07:00,55.0,20.8,29.96,NNW,336,3.0,9.0,26,0.00,,---,0.00,VWS V14.01,2013-02-05 00:07:00,
2013-02-04 17:10:00,54.9,19.8,29.96,NNW,343,5.0,9.0,25,0.00,,---,0.00,VWS V14.01,2013-02-05 00:10:00,
2013-02-04 17:12:00,54.6,19.5,29.97,WNW,299,3.0,7.0,25,0.00,,---,0.00,VWS V14.01,2013-02-05 00:12:00,
2013-02-04 17:15:00,54.5,19.4,29.96,NW,319,2.0,7.0,25,0.00,,---,0.00,VWS V14.01,2013-02-05 00:15:00,
2013-02-04 17:17:00,54.2,19.2,29.96,NNW,338,6.0,9.0,25,0.00,,---,0.00,VWS V14.01,2013-02-05 00:17:00,
2013-02-04 17:20:00,54.1,18.1,29.97,West,280,1.0,9.0,24,0.00,,---,0.00,VWS V14.01,2013-02-05 00:20:00,
2013-02-04 17:22:00,53.9,18.0,29.96,NNW,329,6.0,8.0,24,0.00,,---,0.00,VWS V14.01,2013-02-05 00:22:00,
2013-02-04 17:25:00,53.7,17.8,29.97,NNW,333,4.0,8.0,24,0.00,,---,0.00,VWS V14.01,2013-02-05 00:25:00,
2013-02-04 17:27:00,53.5,17.6,29.97,North,355,4.0,5.0,24,0.00,,---,0.00,VWS V14.01,2013-02-05 00:27:00,
2013-02-04 17:32:00,53.2,19.2,29.97,NNW,333,2.0,6.0,26,0.00,,---,0.00,VWS V14.01,2013-02-05 00:32:00,
2013-02-04 17:35:00,53.0,19.0,29.97,NNW,341,4.0,9.0,26,0.00,,---,0.00,VWS V14.01,2013-02-05 00:35:00,
2013-02-04 17:37:00,52.8,19.8,29.97,NW,323,3.0,9.0,27,0.00,,---,0.00,VWS V14.01,2013-02-05 00:37:00,
2013-02-04 17:40:00,52.7,19.7,29.97,NW,322,1.0,9.0,27,0.00,,---,0.00,VWS V14.01,2013-02-05 00:40:00,
2013-02-04 17:42:00,52.4,20.3,29.97,North,355,5.0,8.0,28,0.00,,---,0.00,VWS V14.01,2013-02-05 00:42:00,
2013-02-04 17:45:00,52.3,19.3,29.97,North,355,3.0,8.0,27,0.00,,---,0.00,VWS V14.01,2013-02-05 00:45:00,
2013-02-04 17:47:00,52.1,20.0,29.97,North,360,3.0,7.0,28,0.00,,---,0.00,VWS V14.01,2013-02-05 00:47:00,
2013-02-04 17:50:00,52.0,19.9,29.97,NNW,333,2.0,9.0,28,0.00,,---,0.00,VWS V14.01,2013-02-05 00:50:00,
2013-02-04 17:52:00,51.8,19.8,29.97,NNW,337,2.0,4.0,28,0.00,,---,0.00,VWS V14.01,2013-02-05 00:52:00,
2013-02-04 17:55:00,51.5,19.5,29.97,NNW,347,4.0,4.0,28,0.00,,---,0.00,VWS V14.01,2013-02-05 00:55:00,
2013-02-04 17:57:00,51.4,19.4,29.98,NNW,339,3.0,6.0,28,0.00,,---,0.00,VWS V14.01,2013-02-05 00:57:00,
2013-02-04 18:00:00,51.3,19.3,29.98,NNW,344,4.0,8.0,28,0.00,,---,0.00,VWS V14.01,2013-02-05 01:00:00,
2013-02-04 18:02:00,51.3,19.3,29.98,NNW,331,4.0,9.0,28,0.00,,---,0.00,VWS V14.01,2013-02-05 01:02:00,
2013-02-04 18:07:00,51.1,20.0,29.98,NNW,341,2.0,5.0,29,0.00,,---,0.00,VWS V14.01,2013-02-05 01:07:00,
2013-02-04 18:10:00,51.0,19.9,29.98,NNW,340,5.0,6.0,29,0.00,,---,0.00,VWS V14.01,2013-02-05 01:10:00,
2013-02-04 18:12:00,50.9,20.6,29.98,North,360,5.0,5.0,30,0.00,,---,0.00,VWS V14.01,2013-02-05 01:12:00,
2013-02-04 18:15:00,50.8,20.5,29.98,NNW,337,2.0,5.0,30,0.00,,---,0.00,VWS V14.01,2013-02-05 01:15:00,
2013-02-04 18:17:00,50.5,21.0,29.98,North,360,4.0,5.0,31,0.00,,---,0.00,VWS V14.01,2013-02-05 01:17:00,
2013-02-04 18:20:00,50.5,21.8,29.98,North,355,3.0,6.0,32,0.00,,---,0.00,VWS V14.01,2013-02-05 01:20:00,
2013-02-04 18:22:00,50.3,21.6,29.99,North,351,2.0,5.0,32,0.00,,---,0.00,VWS V14.01,2013-02-05 01:22:00,
2013-02-04 18:25:00,50.2,21.5,29.99,NNW,340,6.0,6.0,32,0.00,,---,0.00,VWS V14.01,2013-02-05 01:25:00,
2013-02-04 18:27:00,50.2,21.5,29.99,North,5,5.0,8.0,32,0.00,,---,0.00,VWS V14.01,2013-02-05 01:27:00,
2013-02-04 18:30:00,50.1,21.4,29.99,NNW,335,3.0,8.0,32,0.00,,---,0.00,VWS V14.01,2013-02-05 01:30:00,
2013-02-04 18:32:00,50.0,21.3,29.99,North,355,2.0,5.0,32,0.00,,---,0.00,VWS V14.01,2013-02-05 01:32:00,
2013-02-04 18:35:00,49.9,21.2,29.99,North,360,4.0,5.0,32,0.00,,---,0.00,VWS V14.01,2013-02-05 01:35:00,
2013-02-04 18:37:00,49.5,21.6,29.99,NNE,29,2.0,5.0,33,0.00,,---,0.00,VWS V14.01,2013-02-05 01:37:00,
2013-02-04 18:40:00,49.4,20.8,29.99,North,350,3.0,7.0,32,0.00,,---,0.00,VWS V14.01,2013-02-05 01:40:00,
2013-02-04 18:42:00,49.4,21.5,30.00,North,5,4.0,6.0,33,0.00,,---,0.00,VWS V14.01,2013-02-05 01:42:00,
2013-02-04 18:45:00,49.3,21.4,30.00,North,5,6.0,8.0,33,0.00,,---,0.00,VWS V14.01,2013-02-05 01:45:00,
2013-02-04 18:47:00,49.2,21.3,30.00,NNW,341,6.0,7.0,33,0.00,,---,0.00,VWS V14.01,2013-02-05 01:47:00,
2013-02-04 18:50:00,49.1,21.2,30.00,NNW,340,5.0,7.0,33,0.00,,---,0.00,VWS V14.01,2013-02-05 01:50:00,
2013-02-04 18:52:00,49.0,21.9,30.00,North,355,7.0,7.0,34,0.00,,---,0.00,VWS V14.01,2013-02-05 01:52:00,
2013-02-04 18:55:00,48.9,21.8,30.00,NNW,347,7.0,9.0,34,0.00,,---,0.00,VWS V14.01,2013-02-05 01:55:00,
2013-02-04 18:57:00,48.7,22.3,30.00,North,5,6.0,9.0,35,0.00,,---,0.00,VWS V14.01,2013-02-05 01:57:00,
2013-02-04 19:00:00,48.5,22.1,30.00,North,360,10.0,10.0,35,0.00,,---,0.00,VWS V14.01,2013-02-05 02:00:00,
2013-02-04 19:02:00,48.3,21.9,30.00,NW,325,4.0,10.0,35,0.00,,---,0.00,VWS V14.01,2013-02-05 02:02:00,
2013-02-04 19:05:00,48.2,21.9,30.00,NNW,337,8.0,10.0,35,0.00,,---,0.00,VWS V14.01,2013-02-05 02:05:00,
2013-02-04 19:07:00,48.1,22.4,30.00,NNW,335,6.0,11.0,36,0.00,,---,0.00,VWS V14.01,2013-02-05 02:07:00,
2013-02-04 19:10:00,48.0,21.7,30.00,North,355,5.0,11.0,35,0.00,,---,0.00,VWS V14.01,2013-02-05 02:10:00,
2013-02-04 19:12:00,47.9,21.6,30.00,NW,311,2.0,8.0,35,0.00,,---,0.00,VWS V14.01,2013-02-05 02:12:00,
2013-02-04 19:15:00,47.9,21.6,30.00,NNW,340,7.0,9.0,35,0.00,,---,0.00,VWS V14.01,2013-02-05 02:15:00,
2013-02-04 19:17:00,47.9,21.6,30.00,NNW,331,6.0,8.0,35,0.00,,---,0.00,VWS V14.01,2013-02-05 02:17:00,
2013-02-04 19:20:00,47.9,21.6,30.00,NNW,346,4.0,8.0,35,0.00,,---,0.00,VWS V14.01,2013-02-05 02:20:00,
2013-02-04 19:22:00,47.9,21.6,30.00,NNW,346,4.0,8.0,35,0.00,,---,0.00,VWS V14.01,2013-02-05 02:22:00,
2013-02-04 19:25:00,47.8,21.5,30.00,NNW,335,4.0,10.0,35,0.00,,---,0.00,VWS V14.01,2013-02-05 02:25:00,
2013-02-04 19:27:00,47.6,21.3,30.00,North,5,8.0,9.0,35,0.00,,---,0.00,VWS V14.01,2013-02-05 02:27:00,
2013-02-04 19:30:00,47.6,22.0,30.00,North,5,7.0,9.0,36,0.00,,---,0.00,VWS V14.01,2013-02-05 02:30:00,
2013-02-04 19:32:00,47.4,21.8,30.00,NNW,336,2.0,10.0,36,0.00,,---,0.00,VWS V14.01,2013-02-05 02:32:00,
2013-02-04 19:35:00,47.3,21.7,30.00,NNW,338,2.0,10.0,36,0.00,,---,0.00,VWS V14.01,2013-02-05 02:35:00,
2013-02-04 19:37:00,47.1,21.5,30.00,NE,46,4.0,7.0,36,0.00,,---,0.00,VWS V14.01,2013-02-05 02:37:00,
2013-02-04 19:40:00,46.9,21.4,30.00,NW,324,4.0,7.0,36,0.00,,---,0.00,VWS V14.01,2013-02-05 02:40:00,
2013-02-04 19:42:00,46.7,21.8,30.00,NNW,341,2.0,7.0,37,0.00,,---,0.00,VWS V14.01,2013-02-05 02:42:00,
2013-02-04 19:45:00,46.6,21.7,30.00,NNW,342,5.0,7.0,37,0.00,,---,0.00,VWS V14.01,2013-02-05 02:45:00,
2013-02-04 19:47:00,46.4,21.6,30.01,NNW,336,3.0,5.0,37,0.00,,---,0.00,VWS V14.01,2013-02-05 02:47:00,
2013-02-04 19:50:00,46.3,21.5,30.00,North,355,0.0,5.0,37,0.00,,---,0.00,VWS V14.01,2013-02-05 02:50:00,
2013-02-04 19:52:00,46.1,21.3,30.00,North,360,6.0,6.0,37,0.00,,---,0.00,VWS V14.01,2013-02-05 02:52:00,
2013-02-04 19:55:00,46.1,20.6,30.00,North,349,3.0,7.0,36,0.00,,---,0.00,VWS V14.01,2013-02-05 02:55:00,
2013-02-04 19:57:00,46.1,20.6,30.00,North,355,7.0,7.0,36,0.00,,---,0.00,VWS V14.01,2013-02-05 02:57:00,
2013-02-04 20:00:00,46.2,20.7,30.01,NNW,338,4.0,7.0,36,0.00,,---,0.00,VWS V14.01,2013-02-05 03:00:00,
2013-02-04 20:02:00,46.2,20.1,30.01,North,355,1.0,6.0,35,0.00,,---,0.00,VWS V14.01,2013-02-05 03:02:00,
2013-02-04 20:05:00,46.1,20.0,30.01,NNW,338,1.0,6.0,35,0.00,,---,0.00,VWS V14.01,2013-02-05 03:05:00,
2013-02-04 20:07:00,46.1,20.0,30.00,North,350,2.0,7.0,35,0.00,,---,0.00,VWS V14.01,2013-02-05 03:07:00,
2013-02-04 20:10:00,46.1,20.0,30.01,NNW,341,2.0,8.0,35,0.00,,---,0.00,VWS V14.01,2013-02-05 03:10:00,
2013-02-04 20:12:00,46.0,19.9,30.01,North,350,4.0,7.0,35,0.00,,---,0.00,VWS V14.01,2013-02-05 03:12:00,
2013-02-04 20:15:00,46.0,19.9,30.01,North,351,1.0,7.0,35,0.00,,---,0.00,VWS V14.01,2013-02-05 03:15:00,
2013-02-04 20:17:00,45.8,19.7,30.01,North,355,2.0,5.0,35,0.00,,---,0.00,VWS V14.01,2013-02-05 03:17:00,
2013-02-04 20:20:00,45.6,19.5,30.01,North,350,3.0,5.0,35,0.00,,---,0.00,VWS V14.01,2013-02-05 03:20:00,
2013-02-04 20:22:00,45.4,20.0,30.01,NNE,30,3.0,3.0,36,0.00,,---,0.00,VWS V14.01,2013-02-05 03:22:00,
2013-02-04 20:25:00,45.5,20.1,30.01,NNW,345,2.0,7.0,36,0.00,,---,0.00,VWS V14.01,2013-02-05 03:25:00,
2013-02-04 20:27:00,45.5,20.1,30.01,North,355,7.0,8.0,36,0.00,,---,0.00,VWS V14.01,2013-02-05 03:27:00,
2013-02-04 20:30:00,45.6,20.2,30.01,North,355,5.0,8.0,36,0.00,,---,0.00,VWS V14.01,2013-02-05 03:30:00,
2013-02-04 20:32:00,45.8,20.4,30.01,North,5,7.0,11.0,36,0.00,,---,0.00,VWS V14.01,2013-02-05 03:32:00,
2013-02-04 20:35:00,45.9,20.5,30.01,NNW,342,4.0,11.0,36,0.00,,---,0.00,VWS V14.01,2013-02-05 03:35:00,
2013-02-04 20:37:00,46.0,20.6,30.01,NNW,341,4.0,12.0,36,0.00,,---,0.00,VWS V14.01,2013-02-05 03:37:00,
2013-02-04 20:40:00,46.1,20.0,30.02,NNW,348,3.0,14.0,35,0.00,,---,0.00,VWS V14.01,2013-02-05 03:40:00,
2013-02-04 20:42:00,46.1,20.6,30.02,North,355,8.0,13.0,36,0.00,,---,0.00,VWS V14.01,2013-02-05 03:42:00,
2013-02-04 20:45:00,46.1,20.6,30.02,North,355,6.0,14.0,36,0.00,,---,0.00,VWS V14.01,2013-02-05 03:45:00,
2013-02-04 20:47:00,46.1,20.6,30.02,NNE,13,4.0,12.0,36,0.00,,---,0.00,VWS V14.01,2013-02-05 03:47:00,
2013-02-04 20:50:00,46.1,20.6,30.02,North,350,5.0,12.0,36,0.00,,---,0.00,VWS V14.01,2013-02-05 03:50:00,
2013-02-04 20:52:00,46.0,20.6,30.02,NNW,338,8.0,8.0,36,0.00,,---,0.00,VWS V14.01,2013-02-05 03:52:00,
2013-02-04 20:55:00,45.9,20.5,30.02,NW,324,2.0,8.0,36,0.00,,---,0.00,VWS V14.01,2013-02-05 03:55:00,
2013-02-04 20:57:00,45.8,21.0,30.02,North,11,4.0,6.0,37,0.00,,---,0.00,VWS V14.01,2013-02-05 03:57:00,
2013-02-04 21:00:00,45.6,20.9,30.02,NW,311,6.0,8.0,37,0.00,,---,0.00,VWS V14.01,2013-02-05 04:00:00,
2013-02-04 21:02:00,45.5,20.8,30.02,NNW,328,3.0,6.0,37,0.00,,---,0.00,VWS V14.01,2013-02-05 04:02:00,
2013-02-04 21:05:00,45.3,20.6,30.03,NNW,345,4.0,6.0,37,0.00,,---,0.00,VWS V14.01,2013-02-05 04:05:00,
2013-02-04 21:07:00,45.1,21.0,30.03,NW,315,3.0,7.0,38,0.00,,---,0.00,VWS V14.01,2013-02-05 04:07:00,
2013-02-04 21:10:00,45.0,20.9,30.03,NNW,339,3.0,7.0,38,0.00,,---,0.00,VWS V14.01,2013-02-05 04:10:00,
2013-02-04 21:12:00,44.8,20.8,30.03,NW,323,1.0,4.0,38,0.00,,---,0.00,VWS V14.01,2013-02-05 04:12:00,
2013-02-04 21:15:00,44.6,21.2,30.03,NNE,24,2.0,4.0,39,0.00,,---,0.00,VWS V14.01,2013-02-05 04:15:00,
2013-02-04 21:17:00,44.4,21.0,30.03,NNW,327,0.0,4.0,39,0.00,,---,0.00,VWS V14.01,2013-02-05 04:17:00,
2013-02-04 21:20:00,44.2,20.8,30.03,NW,320,2.0,4.0,39,0.00,,---,0.00,VWS V14.01,2013-02-05 04:20:00,
2013-02-04 21:22:00,44.1,21.3,30.03,NW,314,2.0,4.0,40,0.00,,---,0.00,VWS V14.01,2013-02-05 04:22:00,
2013-02-04 21:25:00,44.0,21.2,30.03,NW,325,0.0,4.0,40,0.00,,---,0.00,VWS V14.01,2013-02-05 04:25:00,
2013-02-04 21:27:00,43.9,21.7,30.03,NW,315,2.0,4.0,41,0.00,,---,0.00,VWS V14.01,2013-02-05 04:27:00,
2013-02-04 21:30:00,43.8,21.6,30.03,NW,315,1.0,4.0,41,0.00,,---,0.00,VWS V14.01,2013-02-05 04:30:00,
2013-02-04 21:32:00,43.7,21.6,30.03,NNW,331,0.0,3.0,41,0.00,,---,0.00,VWS V14.01,2013-02-05 04:32:00,
2013-02-04 21:35:00,43.7,22.1,30.03,NNW,331,2.0,3.0,42,0.00,,---,0.00,VWS V14.01,2013-02-05 04:35:00,
2013-02-04 21:37:00,43.5,22.0,30.03,NNW,331,3.0,4.0,42,0.00,,---,0.00,VWS V14.01,2013-02-05 04:37:00,
2013-02-04 21:40:00,43.4,21.9,30.04,NNW,331,0.0,4.0,42,0.00,,---,0.00,VWS V14.01,2013-02-05 04:40:00,
2013-02-04 21:42:00,43.3,21.8,30.04,NW,321,1.0,3.0,42,0.00,,---,0.00,VWS V14.01,2013-02-05 04:42:00,
2013-02-04 21:45:00,43.3,21.8,30.04,NNW,333,3.0,3.0,42,0.00,,---,0.00,VWS V14.01,2013-02-05 04:45:00,
2013-02-04 21:47:00,43.2,22.2,30.04,NNW,333,0.0,3.0,43,0.00,,---,0.00,VWS V14.01,2013-02-05 04:47:00,
2013-02-04 21:50:00,43.1,22.1,30.04,NNW,333,0.0,3.0,43,0.00,,---,0.00,VWS V14.01,2013-02-05 04:50:00,
2013-02-04 21:52:00,43.0,22.0,30.04,NNW,330,0.0,2.0,43,0.00,,---,0.00,VWS V14.01,2013-02-05 04:52:00,
2013-02-04 21:55:00,43.0,22.0,30.04,NW,321,2.0,2.0,43,0.00,,---,0.00,VWS V14.01,2013-02-05 04:55:00,
2013-02-04 21:57:00,43.0,22.0,30.04,NW,305,1.0,3.0,43,0.00,,---,0.00,VWS V14.01,2013-02-05 04:57:00,
2013-02-04 22:00:00,42.8,21.9,30.04,NW,320,2.0,2.0,43,0.00,,---,0.00,VWS V14.01,2013-02-05 05:00:00,
2013-02-04 22:05:00,42.5,21.6,30.04,NW,321,3.0,3.0,43,0.00,,---,0.00,VWS V14.01,2013-02-05 05:05:00,
2013-02-04 22:10:00,42.3,21.4,30.04,NNW,342,1.0,3.0,43,0.00,,---,0.00,VWS V14.01,2013-02-05 05:10:00,
2013-02-04 22:15:00,41.9,21.6,30.04,NNW,342,0.0,1.0,44,0.00,,---,0.00,VWS V14.01,2013-02-05 05:15:00,
2013-02-04 22:20:00,41.8,21.5,30.03,NW,310,0.0,1.0,44,0.00,,---,0.00,VWS V14.01,2013-02-05 05:20:00,
2013-02-04 22:25:00,41.1,21.4,30.03,NW,310,0.0,0.0,45,0.00,,---,0.00,VWS V14.01,2013-02-05 05:25:00,
2013-02-04 22:30:00,41.4,21.7,30.03,NW,310,0.0,1.0,45,0.00,,---,0.00,VWS V14.01,2013-02-05 05:30:00,
2013-02-04 22:35:00,41.6,21.3,30.04,NW,310,0.0,1.0,44,0.00,,---,0.00,VWS V14.01,2013-02-05 05:35:00,
2013-02-04 22:40:00,41.3,21.6,30.04,NW,310,0.0,0.0,45,0.00,,---,0.00,VWS V14.01,2013-02-05 05:40:00,
2013-02-04 22:45:00,40.6,21.5,30.04,NW,311,0.0,0.0,46,0.00,,---,0.00,VWS V14.01,2013-02-05 05:45:00,
2013-02-04 22:50:00,40.6,21.5,30.04,North,5,1.0,1.0,46,0.00,,---,0.00,VWS V14.01,2013-02-05 05:50:00,
2013-02-04 22:55:00,40.7,21.5,30.03,NNW,336,0.0,2.0,46,0.00,,---,0.00,VWS V14.01,2013-02-05 05:55:00,
2013-02-04 23:00:00,40.5,21.4,30.03,North,350,0.0,1.0,46,0.00,,---,0.00,VWS V14.01,2013-02-05 06:00:00,
2013-02-04 23:05:00,40.2,21.6,30.03,NW,320,1.0,2.0,47,0.00,,---,0.00,VWS V14.01,2013-02-05 06:05:00,
2013-02-04 23:10:00,40.3,21.2,30.03,NNW,338,0.0,2.0,46,0.00,,---,0.00,VWS V14.01,2013-02-05 06:10:00,
2013-02-04 23:15:00,40.7,21.0,30.03,NW,308,1.0,1.0,45,0.00,,---,0.00,VWS V14.01,2013-02-05 06:15:00,
2013-02-04 23:20:00,41.0,20.8,30.03,NW,304,0.0,2.0,44,0.00,,---,0.00,VWS V14.01,2013-02-05 06:20:00,
2013-02-04 23:25:00,41.4,20.0,30.03,NW,309,2.0,2.0,42,0.00,,---,0.00,VWS V14.01,2013-02-05 06:25:00,
2013-02-04 23:30:00,41.5,20.1,30.03,NNW,333,3.0,3.0,42,0.00,,---,0.00,VWS V14.01,2013-02-05 06:30:00,
2013-02-04 23:35:00,41.4,20.0,30.03,NW,317,1.0,2.0,42,0.00,,---,0.00,VWS V14.01,2013-02-05 06:35:00,
2013-02-04 23:40:00,41.0,19.7,30.03,NNW,345,2.0,2.0,42,0.00,,---,0.00,VWS V14.01,2013-02-05 06:40:00,
2013-02-04 23:45:00,40.5,19.8,30.03,NNW,342,1.0,1.0,43,0.00,,---,0.00,VWS V14.01,2013-02-05 06:45:00,
2013-02-04 23:50:00,40.4,19.7,30.03,NNW,345,3.0,3.0,43,0.00,,---,0.00,VWS V14.01,2013-02-05 06:50:00,
2013-02-04 23:55:00,40.1,19.4,30.03,NNW,348,3.0,4.0,43,0.00,,---,0.00,VWS V14.01,2013-02-05 06:55:00,